Flag for Germany Weather past 2 weeks in Senftenberg, Brandenburg, Germany

Now
25 °F

Overcast.


Feels Like: 25 °F
Forecast: 20 / 25 °F
Wind: 2 mph from Southeast

Location: Cottbus

Current Time: Dec 27, 2014 at 11:09:48 AM

Latest Report: Dec 27, 2014 at 10:00 AM


Visibility: 6 mi

Pressure: 29.94 "Hg

Humidity: 87%

Dew point: 21 °F

Location of SenftenbergLocation

Historic Weather in Senftenberg — Graph

°F

Senftenberg temperature yesterday

Maximum temperature yesterday: 35 °F (at 12:00 AM)
Minimum temperature yesterday: 26 °F (at 10:00 PM)
Average temperature yesterday: 31 °F

Past Weeks' High & Low Weather Summary

 TemperatureHumidityPressure
High55 °F (Dec 19, 8:00 AM)100% (Dec 14, 9:00 PM)30.32 "Hg (Dec 14, 9:00 PM)
Low23 °F (Dec 27, 8:00 AM)60% (Dec 15, 2:00 PM)29.47 "Hg (Dec 12, 7:00 PM)
Average43 °F83%29.92 "Hg
* Reported Dec 12 10:00 AM — Dec 27 10:00 AM, Senftenberg, Weather by CustomWeather, © 2014

Note: Actual official high and low records may vary slightly from our data, if they occured in-between our weather recording intervals... More about our weather records

Advertising

Senftenberg weather history for previous 24 hours

 ConditionsComfort  
Time TempWeatherWind HumidityBarometerVisibility
10:00 AM
Dec 27
25 °FOvercast.2 mph87%29.94 "Hg6 mi
9:00 AM23 °FSunny.2 mph93%29.98 "Hg7 mi
8:00 AM23 °FPassing clouds.2 mph94%30.00 "Hg6 mi
7:00 AM23 °FClear.2 mph95%30.03 "Hg6 mi
6:00 AM23 °FPassing clouds.1 mph96%30.06 "Hg5 mi
5:00 AM24 °FPassing clouds.2 mph95%30.10 "Hg6 mi
4:00 AM24 °FClear.1 mph95%30.13 "Hg7 mi
3:00 AM23 °FClear.2 mph97%30.16 "Hg7 mi
2:00 AM25 °FPassing clouds.1 mph96%30.19 "Hg6 mi
1:00 AM26 °FOvercast.1 mph96%30.21 "Hg6 mi
12:00 AM26 °FOvercast.1 mph96%30.24 "Hg7 mi
11:00 PM
Dec 26
27 °FOvercast.1 mph96%30.26 "Hg7 mi
10:00 PM26 °FOvercast.1 mph98%30.28 "Hg6 mi
9:00 PM27 °FPassing clouds.1 mph98%30.29 "Hg6 mi
8:00 PM29 °FPassing clouds.1 mph96%30.30 "Hg6 mi
7:00 PM28 °FOvercast.2 mph98%30.30 "Hg4 mi
6:00 PM29 °FLight snow. Low clouds.1 mph98%30.31 "Hg6 mi
5:00 PM30 °FPassing clouds.1 mph97%30.31 "Hg6 mi
4:00 PM31 °FLight snow. Low clouds.1 mph96%30.31 "Hg3 mi
3:00 PM32 °FLight snow. Low clouds.1 mph94%30.31 "Hg3 mi
2:00 PM31 °FLight snow. Low clouds.2 mph95%30.31 "Hg6 mi
1:00 PM31 °FLight snow. Low clouds.2 mph96%30.31 "Hg6 mi
12:00 PM32 °FLight snow. Low clouds.2 mph92%30.32 "Hg3 mi
11:00 AM33 °FOvercast.2 mph95%30.32 "Hg9 mi
Weather by CustomWeather, © 2014

See weather overviewHow to use our weather pages